STARLINK-2457, 48321

Orbit data source: Space-Track

STARLINK-2457, 48321 is a payload satellite owned by SpaceX/Seattle (US) in LEO that was launched on Thu, 29 Apr 2021 UTC via an FALCON 9 launch vehicle from the Air Force Eastern Test Range (AFETR). Payload-class satellites include a variety of spacecraft equipped with specific instruments for various scientific and technological missions. These include communications satellites like Starlink; space stations such as the ISS; scientific satellites like the Hubble; Earth observation satellites from companies like Planet Labs, Umbra, and HawkEye 360; GPS; miniature CubeSats for education and research; and military/defense satellites.

Loading next visibility...
Identifier
48321, 2021-036AX
Orbit
LEO
Country
Flag of USUS
Related business
Manufacturer
SpaceX/Seattle
Mission
Operational Commercial Communications
Bus & Motor
STARLINK, Unknown motor
Mass
260 kg wet, ~248 kg dry
Launch date (UTC)
2021-04-29 (4 years ago)
Launch vehicle
FALCON 9
Launch site
Air Force Eastern Test Range (AFETR)
Object type
Payload
Rocket body
Debris
Shape & HBR
Box + 1 Pan, 10.1 m
Radar Cross Section
13.562 m², Large (>1 m²)

Expand to show TLE details & history
Last TLE update: 9 hours ago

TLE from 9 hours ago
0 STARLINK-2457
1 48321U 21036AX  25296.44287440  .00014958  00000-0  10198-2 0  9995
2 48321  53.0547 357.7471 0001354 105.5089 254.6050 15.06440693247349
Epoch: 2025-10-23T10:37Z
TLE epoch observation values (Epoch: 2025-10-23T10:37:44.348Z)
Latitude
0.00003°
Longitude
166.21028°
Altitude
548.215 km
Speed
7.589 km/s
True Right ascension
23h 50m 59s
True Declination
0° 00' 00"
Sunlit
Object was in full shadow at epoch
Visualization orbit readout
Latitude
Unknown
Longitude
Unknown
Altitude
Unknown
Speed
Unknown
Apparent Right ascension
Unknown
Apparent Declination
Unknown
Sunlit
N/A
Visualization observer readout
Local Sidereal Time
14:59:42
Azimuth
Unknown
Elevation
Unknown
Doppler factor
Unknown
Orbital elements
Apogee altitude
548.295 km
Perigee altitude
546.42 km
Semi-major axis
6,925.495 km
Eccentricity
0.00014
Inclination
53.0547°
RAAN
357.7471°
Arg. of periapsis
105.5089°
True anomaly
254.59004°
Mean anomaly
254.605°
Eccentric anomaly
254.59752°
Mean motion
3.76588 °/min
Orbital period
95.6 mins
BSTAR
0.0010198
Loading maneuver chart data...
Computing Atmospheric mass density...
Loading historical data...
Loading historical data...
Loading historical data...
Loading historical data...
Loading historical data...
Loading historical data...
Loading historical data...

Documentation

Showing up to 5 results
|